Location: Treviso
(45.6669°N, 12.2430°E)
Time: 00:39:00
(UTC+02:00)

ISS - Pass Details

Date: 27 May 2017
Orbit: 402 x 408 km, 51.6° (Epoch: 30 May)

Event Time Altitude Azimuth Distance (km) Brightness Sun altitude
Rises 00:57:04 0° 292° (WNW) 2,334 0.4 -23.0°
Reaches altitude 10° 00:59:20 10° 304° (NW) 1,471 -0.6 -23.0°
Maximum altitude 01:02:16 29° 7° (N) 781 -1.8 -23.0°
Drops below altitude 10° 01:05:12 10° 70° (ENE) 1,466 -0.8 -23.0°
Sets 01:07:27 0° 82° (E) 2,324 0.1 -23.0°
